Home   Weather   Pasadena   Past weeks

Flag for USA Past Weather in Pasadena, Texas, USA — Yesterday and Last 2 Weeks

Now
84 °F

Broken clouds.


Feels Like: 91 °F
Forecast: 78 / 87 °F
Wind: 10 mph from East

Location: Houston / Ellington

Current Time: Jun 25, 2017 at 5:35:40 pm

Latest Report: Jun 25, 2017 at 4:50 pm


Visibility: 10 mi

Pressure: 30.10 "Hg

Humidity: 70%

Dew Point: 73 °F

Location of PasadenaLocation

Past Weather in Pasadena — Graph

°F

Pasadena Temperature Yesterday

Maximum temperature yesterday: 88 °F (at 3:50 pm)
Minimum temperature yesterday: 75 °F (at 10:50 am)
Average temperature yesterday: 82 °F

High & Low Weather Summary for the Past Weeks

 TemperatureHumidityPressure
High95 °F (Jun 15, 1:50 pm)100% (Jun 13, 5:50 am)30.18 "Hg (Jun 13, 5:50 am)
Low73 °F (Jun 11, 4:50 am)47% (Jun 19, 4:50 pm)29.56 "Hg (Jun 22, 2:50 am)
Average84 °F74%29.90 "Hg
* Reported Jun 10 3:50 pm — Jun 25 3:50 pm, Pasadena. Weather by CustomWeather, © 2017

Note: Actual official high and low records may vary slightly from our data, if they occured in-between our weather recording intervals... More about our weather records

Advertising

Pasadena Weather History for the Previous 24 Hours

Scroll right to see more
 ConditionsComfort  
Time TempWeatherWind HumidityBarometerVisibility
3:50 pm
Sun, Jun 25
84 °FBroken clouds.7 mph74%30.10 "Hg10 mi
2:50 pm84 °FBroken clouds.7 mph74%30.12 "Hg10 mi
1:50 pm79 °FThunderstorms. Partly sunny.5 mph84%30.13 "Hg10 mi
11:50 am86 °FBroken clouds.8 mph66%30.18 "Hg10 mi
10:50 am82 °FPartly sunny.8 mph74%30.18 "Hg8 mi
9:50 am81 °FPartly sunny.6 mph74%30.16 "Hg10 mi
8:50 am77 °FPartly sunny.3 mph83%30.16 "Hg10 mi
7:50 am75 °FPartly sunny.No wind89%30.12 "Hg10 mi
6:50 am75 °FScattered showers. Partly sunny.6 mph89%30.10 "Hg7 mi
5:50 am77 °FScattered showers. Passing clouds.14 mph94%30.10 "Hg7 mi
4:50 am79 °FScattered showers. Passing clouds.3 mph94%30.10 "Hg7 mi
3:50 am79 °FPassing clouds.No wind94%30.09 "Hg10 mi
2:50 am79 °FPassing clouds.No wind89%30.10 "Hg10 mi
12:50 am79 °FPassing clouds.No wind89%30.11 "Hg10 mi
11:50 pm
Sat, Jun 24
79 °FPassing clouds.No wind84%30.12 "Hg10 mi
10:50 pm81 °FScattered showers. Partly cloudy.No wind79%30.10 "Hg10 mi
9:50 pm82 °FRain. Partly cloudy.6 mph74%30.06 "Hg10 mi
8:50 pm82 °FPartly cloudy.No wind74%30.03 "Hg10 mi
7:50 pm82 °FBroken clouds.6 mph74%30.02 "Hg10 mi
6:50 pm84 °FBroken clouds.7 mph74%30.00 "Hg10 mi
5:50 pm84 °FBroken clouds.5 mph79%30.00 "Hg10 mi
Weather by CustomWeather, © 2017

See weather overviewHow to use our weather pages